| time (UTC) | temp C | wind direction | speed KPH | gust KPH | rain 1hr cm | rain 24hr cm | rain mn cm | humidity % | barometer mb |
| 20260508211503 | 22 | 211 | 8.0 | 19.3 | 0.00 | 0.00 | 0.00 | 39 | 1010.0 |
| 20260508211003 | 22 | 217 | 8.0 | 20.9 | 0.00 | 0.00 | 0.00 | 40 | 1010.1 |
| 20260508210503 | 22 | 213 | 6.4 | 20.9 | 0.00 | 0.00 | 0.00 | 39 | 1010.2 |
| 20260508210024 | 22 | 210 | 8.0 | 25.7 | 0.00 | 0.00 | 0.00 | 39 | 1010.4 |
| 20260508205503 | 22 | 199 | 9.7 | 25.7 | 0.00 | 0.00 | 0.00 | 37 | 1010.4 |
| 20260508205024 | 22 | 199 | 9.7 | 25.7 | 0.00 | 0.00 | 0.00 | 40 | 1010.4 |
| 20260508204503 | 22 | 212 | 8.0 | 19.3 | 0.00 | 0.00 | 0.00 | 36 | 1010.6 |
| 20260508204024 | 22 | 219 | 6.4 | 22.5 | 0.00 | 0.00 | 0.00 | 39 | 1010.7 |
| 20260508203503 | 22 | 222 | 8.0 | 22.5 | 0.00 | 0.00 | 0.00 | 40 | 1010.9 |
| 20260508203024 | 22 | 218 | 8.0 | 22.5 | 0.00 | 0.00 | 0.00 | 40 | 1011.0 |
| 20260508202503 | 22 | 214 | 8.0 | 19.3 | 0.00 | 0.00 | 0.00 | 41 | 1011.2 |
| 20260508202003 | 22 | 220 | 8.0 | 24.1 | 0.00 | 0.00 | 0.00 | 42 | 1011.4 |
| 20260508201503 | 22 | 223 | 8.0 | 24.1 | 0.00 | 0.00 | 0.00 | 39 | 1011.2 |
| 20260508201003 | 22 | 217 | 8.0 | 22.5 | 0.00 | 0.00 | 0.00 | 39 | 1011.3 |
| 20260508200503 | 22 | 214 | 6.4 | 22.5 | 0.00 | 0.00 | 0.00 | 38 | 1011.3 |
| 20260508200003 | 21 | 213 | 8.0 | 22.5 | 0.00 | 0.00 | 0.00 | 41 | 1011.3 |
| 20260508195503 | 21 | 215 | 8.0 | 22.5 | 0.00 | 0.00 | 0.00 | 40 | 1011.2 |
| 20260508195003 | 21 | 215 | 8.0 | 22.5 | 0.00 | 0.00 | 0.00 | 38 | 1011.1 |
| 20260508194503 | 21 | 206 | 8.0 | 20.9 | 0.00 | 0.00 | 0.00 | 41 | 1011.2 |
| 20260508194003 | 21 | 195 | 8.0 | 20.9 | 0.00 | 0.00 | 0.00 | 42 | 1011.2 |
| 20260508193503 | 21 | 184 | 8.0 | 24.1 | 0.00 | 0.00 | 0.00 | 41 | 1011.3 |
| 20260508193024 | 21 | 197 | 8.0 | 24.1 | 0.00 | 0.00 | 0.00 | 42 | 1011.4 |
| 20260508192524 | 21 | 217 | 8.0 | 22.5 | 0.00 | 0.00 | 0.00 | 41 | 1011.5 |
| 20260508192003 | 21 | 212 | 8.0 | 25.7 | 0.00 | 0.00 | 0.00 | 40 | 1011.6 |
| 20260508191503 | 21 | 208 | 8.0 | 22.5 | 0.00 | 0.00 | 0.00 | 38 | 1011.5 |
| 20260508191003 | 21 | 214 | 8.0 | 20.9 | 0.00 | 0.00 | 0.00 | 41 | 1011.6 |
| 20260508190503 | 21 | 213 | 6.4 | 20.9 | 0.00 | 0.00 | 0.00 | 40 | 1011.8 |
| 20260508190003 | 21 | 211 | 6.4 | 19.3 | 0.00 | 0.00 | 0.00 | 40 | 1011.9 |
| 20260508185503 | 21 | 209 | 8.0 | 19.3 | 0.00 | 0.00 | 0.00 | 43 | 1011.9 |
| 20260508185003 | 21 | 200 | 8.0 | 27.4 | 0.00 | 0.00 | 0.00 | 40 | 1011.9 |
| 20260508184503 | 21 | 198 | 8.0 | 27.4 | 0.00 | 0.00 | 0.00 | 42 | 1012.0 |
| 20260508184003 | 21 | 211 | 8.0 | 24.1 | 0.00 | 0.00 | 0.00 | 39 | 1012.1 |
| 20260508183503 | 21 | 208 | 8.0 | 24.1 | 0.00 | 0.00 | 0.00 | 41 | 1012.1 |
| 20260508183003 | 21 | 198 | 6.4 | 19.3 | 0.00 | 0.00 | 0.00 | 42 | 1012.3 |
| 20260508182503 | 21 | 211 | 6.4 | 17.7 | 0.00 | 0.00 | 0.00 | 47 | 1012.4 |
| 20260508182003 | 21 | 223 | 9.7 | 29.0 | 0.00 | 0.00 | 0.00 | 43 | 1012.5 |
| 20260508181503 | 21 | 216 | 9.7 | 29.0 | 0.00 | 0.00 | 0.00 | 42 | 1012.7 |
| 20260508181003 | 21 | 202 | 8.0 | 22.5 | 0.00 | 0.00 | 0.00 | 41 | 1012.7 |
| 20260508180503 | 21 | 204 | 8.0 | 19.3 | 0.00 | 0.00 | 0.00 | 42 | 1012.7 |
| 20260508180003 | 21 | 208 | 8.0 | 19.3 | 0.00 | 0.00 | 0.00 | 42 | 1013.0 |
| 20260508175503 | 20 | 214 | 8.0 | 19.3 | 0.00 | 0.00 | 0.00 | 45 | 1013.0 |
| 20260508175003 | 20 | 216 | 6.4 | 19.3 | 0.00 | 0.00 | 0.00 | 43 | 1013.0 |
| 20260508174503 | 20 | 195 | 6.4 | 24.1 | 0.00 | 0.00 | 0.00 | 44 | 1013.2 |
| 20260508174003 | 21 | 190 | 8.0 | 24.1 | 0.00 | 0.00 | 0.00 | 44 | 1013.3 |
| 20260508173503 | 21 | 188 | 6.4 | 16.1 | 0.00 | 0.00 | 0.00 | 45 | 1013.4 |
| 20260508173024 | 21 | 198 | 6.4 | 16.1 | 0.00 | 0.00 | 0.00 | 46 | 1013.4 |
| 20260508172503 | 21 | 205 | 4.8 | 16.1 | 0.00 | 0.00 | 0.00 | 45 | 1013.5 |
| 20260508172003 | 20 | 211 | 4.8 | 16.1 | 0.00 | 0.00 | 0.00 | 44 | 1013.5 |
| 20260508171524 | 20 | 197 | 6.4 | 19.3 | 0.00 | 0.00 | 0.00 | 44 | 1013.6 |
| 20260508171003 | 20 | 184 | 6.4 | 19.3 | 0.00 | 0.00 | 0.00 | 49 | 1013.8 |
| 20260508170503 | 20 | 205 | 6.4 | 19.3 | 0.00 | 0.00 | 0.00 | 45 | 1014.0 |
| 20260508170003 | 20 | 212 | 6.4 | 14.5 | 0.00 | 0.00 | 0.00 | 50 | 1014.0 |
| 20260508165503 | 20 | 206 | 6.4 | 22.5 | 0.00 | 0.00 | 0.00 | 46 | 1014.2 |
| 20260508165004 | 20 | 201 | 6.4 | 22.5 | 0.00 | 0.00 | 0.00 | 46 | 1014.3 |
| 20260508164503 | 20 | 195 | 6.4 | 16.1 | 0.00 | 0.00 | 0.00 | 46 | 1014.4 |
| 20260508164003 | 20 | 200 | 6.4 | 17.7 | 0.00 | 0.00 | 0.00 | 50 | 1014.6 |
| 20260508163503 | 20 | 214 | 6.4 | 17.7 | 0.00 | 0.00 | 0.00 | 44 | 1014.6 |
| 20260508163003 | 19 | 230 | 6.4 | 17.7 | 0.00 | 0.00 | 0.00 | 48 | 1014.8 |
| 20260508162503 | 19 | 230 | 6.4 | 19.3 | 0.00 | 0.00 | 0.00 | 48 | 1014.9 |
| 20260508162003 | 20 | 223 | 6.4 | 19.3 | 0.00 | 0.00 | 0.00 | 48 | 1014.9 |
| 20260508161524 | 20 | 219 | 4.8 | 14.5 | 0.00 | 0.00 | 0.00 | 46 | 1014.9 |
| 20260508161003 | 20 | 202 | 4.8 | 16.1 | 0.00 | 0.00 | 0.00 | 51 | 1015.0 |
| 20260508160503 | 19 | 209 | 6.4 | 16.1 | 0.00 | 0.00 | 0.00 | 52 | 1015.1 |
| 20260508160003 | 19 | 227 | 6.4 | 16.1 | 0.00 | 0.00 | 0.00 | 51 | 1015.1 |
| 20260508155503 | 18 | 236 | 6.4 | 14.5 | 0.00 | 0.00 | 0.00 | 52 | 1015.1 |
| 20260508155003 | 18 | 244 | 6.4 | 20.9 | 0.00 | 0.00 | 0.00 | 48 | 1015.2 |
| 20260508154503 | 18 | 233 | 8.0 | 20.9 | 0.00 | 0.00 | 0.00 | 47 | 1015.2 |
| 20260508154003 | 18 | 222 | 8.0 | 20.9 | 0.00 | 0.00 | 0.00 | 45 | 1015.3 |
| 20260508153503 | 18 | 226 | 6.4 | 17.7 | 0.00 | 0.00 | 0.00 | 46 | 1015.3 |
| 20260508153003 | 18 | 229 | 8.0 | 20.9 | 0.00 | 0.00 | 0.00 | 48 | 1015.5 |
| 20260508152503 | 18 | 233 | 9.7 | 20.9 | 0.00 | 0.00 | 0.00 | 46 | 1015.5 |
| 20260508152024 | 18 | 239 | 8.0 | 20.9 | 0.00 | 0.00 | 0.00 | 48 | 1015.6 |
| 20260508151503 | 18 | 237 | 6.4 | 16.1 | 0.00 | 0.00 | 0.00 | 48 | 1015.7 |
| 20260508151003 | 18 | 234 | 6.4 | 16.1 | 0.00 | 0.00 | 0.00 | 49 | 1015.7 |
| 20260508150503 | 18 | 236 | 8.0 | 19.3 | 0.00 | 0.00 | 0.00 | 50 | 1015.7 |
| 20260508150004 | 18 | 228 | 8.0 | 19.3 | 0.00 | 0.00 | 0.00 | 46 | 1015.7 |
| 20260508145503 | 18 | 221 | 6.4 | 16.1 | 0.00 | 0.00 | 0.00 | 47 | 1015.6 |
| 20260508145003 | 17 | 223 | 6.4 | 16.1 | 0.00 | 0.00 | 0.00 | 45 | 1015.6 |
| 20260508144503 | 17 | 232 | 6.4 | 20.9 | 0.00 | 0.00 | 0.00 | 50 | 1015.7 |
| 20260508144003 | 17 | 233 | 6.4 | 20.9 | 0.00 | 0.00 | 0.00 | 48 | 1015.7 |
| 20260508143503 | 17 | 237 | 6.4 | 14.5 | 0.00 | 0.00 | 0.00 | 50 | 1015.6 |
| 20260508143003 | 17 | 237 | 6.4 | 20.9 | 0.00 | 0.00 | 0.00 | 47 | 1015.7 |
| 20260508142503 | 17 | 231 | 6.4 | 20.9 | 0.00 | 0.00 | 0.00 | 51 | 1015.8 |
| 20260508142003 | 17 | 228 | 6.4 | 16.1 | 0.00 | 0.00 | 0.00 | 49 | 1015.8 |
| 20260508141503 | 16 | 225 | 6.4 | 19.3 | 0.00 | 0.00 | 0.00 | 52 | 1015.8 |
| 20260508141024 | 16 | 227 | 6.4 | 19.3 | 0.00 | 0.00 | 0.00 | 53 | 1015.8 |
| 20260508140503 | 16 | 218 | 4.8 | 16.1 | 0.00 | 0.00 | 0.00 | 53 | 1015.8 |
| 20260508140003 | 16 | 213 | 6.4 | 14.5 | 0.00 | 0.00 | 0.00 | 54 | 1015.8 |
| 20260508135524 | 16 | 217 | 6.4 | 12.9 | 0.00 | 0.00 | 0.00 | 54 | 1015.8 |
| 20260508135024 | 16 | 224 | 4.8 | 12.9 | 0.00 | 0.00 | 0.00 | 53 | 1015.8 |
| 20260508134503 | 15 | 243 | 3.2 | 9.7 | 0.00 | 0.00 | 0.00 | 62 | 1015.8 |
| 20260508134003 | 15 | 246 | 3.2 | 9.7 | 0.00 | 0.00 | 0.00 | 59 | 1015.9 |
| 20260508133503 | 15 | 234 | 4.8 | 9.7 | 0.00 | 0.00 | 0.00 | 55 | 1015.8 |
| 20260508133024 | 15 | 217 | 4.8 | 12.9 | 0.00 | 0.00 | 0.00 | 60 | 1015.9 |
| 20260508132503 | 14 | 212 | 3.2 | 12.9 | 0.00 | 0.00 | 0.00 | 60 | 1015.9 |
| 20260508132003 | 13 | 208 | 4.8 | 12.9 | 0.00 | 0.00 | 0.00 | 63 | 1015.8 |
| 20260508131503 | 13 | 209 | 4.8 | 12.9 | 0.00 | 0.00 | 0.00 | 63 | 1015.8 |
| 20260508131024 | 13 | 208 | 3.2 | 9.7 | 0.00 | 0.00 | 0.00 | 64 | 1015.8 |
| 20260508130503 | 12 | 205 | 3.2 | 11.3 | 0.00 | 0.00 | 0.00 | 69 | 1015.8 |
| 20260508130024 | 12 | 196 | 3.2 | 11.3 | 0.00 | 0.00 | 0.00 | 72 | 1015.8 |
| 20260508125503 | 11 | 192 | 1.6 | 8.0 | 0.00 | 0.00 | 0.00 | 73 | 1015.8 |
| 20260508125003 | 11 | 201 | 1.6 | 8.0 | 0.00 | 0.00 | 0.00 | 74 | 1015.8 |
| 20260508124503 | 10 | 199 | 1.6 | 4.8 | 0.00 | 0.00 | 0.00 | 76 | 1015.8 |
| 20260508124003 | 10 | 206 | 1.6 | 8.0 | 0.00 | 0.00 | 0.00 | 77 | 1015.8 |
| 20260508123503 | 10 | 207 | 3.2 | 9.7 | 0.00 | 0.00 | 0.00 | 79 | 1015.8 |
| 20260508123003 | 9 | 197 | 3.2 | 9.7 | 0.00 | 0.00 | 0.00 | 80 | 1015.8 |
| 20260508122503 | 8 | 192 | 1.6 | 8.0 | 0.00 | 0.00 | 0.00 | 84 | 1015.8 |
| 20260508122003 | 8 | 202 | 1.6 | 6.4 | 0.00 | 0.00 | 0.00 | 87 | 1015.7 |
| 20260508121503 | 7 | 192 | 1.6 | 6.4 | 0.00 | 0.00 | 0.00 | 90 | 1015.7 |
| 20260508121003 | 7 | 172 | 1.6 | 6.4 | 0.00 | 0.00 | 0.00 | 95 | 1015.7 |
| 20260508120503 | 7 | 170 | 1.6 | 3.2 | 0.00 | 0.00 | 0.00 | 97 | 1015.7 |
| 20260508120024 | 6 | 180 | 1.6 | 3.2 | 0.00 | 0.00 | 0.00 | 97 | 1015.7 |
| 20260508115503 | 5 | 179 | 0.0 | 3.2 | 0.00 | 0.00 | 0.00 | 97 | 1015.7 |
| 20260508115003 | 5 | 170 | 0.0 | 1.6 | 0.00 | 0.00 | 0.00 | 97 | 1015.7 |
| 20260508114503 | 4 | 180 | 0.0 | 1.6 | 0.00 | 0.00 | 0.00 | 97 | 1015.6 |
| 20260508114003 | 3 | 182 | 0.0 | 1.6 | 0.00 | 0.00 | 0.00 | 97 | 1015.6 |
| 20260508113503 | 3 | 0 | 0.0 | 0.0 | 0.00 | 0.00 | 0.00 | 96 | 1015.5 |
| 20260508113004 | 2 | 0 | 0.0 | 0.0 | 0.00 | 0.00 | 0.00 | 96 | 1015.5 |
| 20260508112503 | 2 | 0 | 0.0 | 0.0 | 0.00 | 0.00 | 0.00 | 96 | 1015.4 |
| 20260508112003 | 2 | 0 | 0.0 | 0.0 | 0.00 | 0.00 | 0.00 | 96 | 1015.4 |
| 20260508111503 | 2 | 0 | 0.0 | 0.0 | 0.00 | 0.00 | 0.00 | 96 | 1015.3 |
| 20260508111003 | 2 | 0 | 0.0 | 0.0 | 0.00 | 0.00 | 0.00 | 95 | 1015.3 |
| 20260508110503 | 1 | 0 | 0.0 | 0.0 | 0.00 | 0.00 | 0.00 | 95 | 1015.3 |
| 20260508110003 | 1 | 0 | 0.0 | 0.0 | 0.00 | 0.00 | 0.00 | 95 | 1015.3 |
| 20260508105503 | 1 | 0 | 0.0 | 0.0 | 0.00 | 0.00 | 0.00 | 95 | 1015.2 |
| 20260508105003 | 1 | 0 | 0.0 | 0.0 | 0.00 | 0.00 | 0.00 | 95 | 1015.1 |
| 20260508104524 | 2 | 0 | 0.0 | 0.0 | 0.00 | 0.00 | 0.00 | 95 | 1015.0 |
| 20260508104003 | 2 | 0 | 0.0 | 0.0 | 0.00 | 0.00 | 0.00 | 95 | 1015.0 |
| 20260508103524 | 2 | 0 | 0.0 | 0.0 | 0.00 | 0.00 | 0.00 | 95 | 1015.1 |
| 20260508103003 | 2 | 0 | 0.0 | 0.0 | 0.00 | 0.00 | 0.00 | 95 | 1015.0 |
| 20260508102503 | 2 | 0 | 0.0 | 0.0 | 0.00 | 0.00 | 0.00 | 95 | 1015.0 |
| 20260508102003 | 2 | 0 | 0.0 | 0.0 | 0.00 | 0.00 | 0.00 | 95 | 1015.1 |
| 20260508101503 | 2 | 0 | 0.0 | 0.0 | 0.00 | 0.00 | 0.00 | 95 | 1015.0 |
| 20260508101003 | 2 | 0 | 0.0 | 0.0 | 0.00 | 0.00 | 0.00 | 95 | 1015.0 |
| 20260508100503 | 2 | 167 | 0.0 | 1.6 | 0.00 | 0.00 | 0.00 | 95 | 1015.0 |
| 20260508100003 | 2 | 167 | 0.0 | 1.6 | 0.00 | 0.00 | 0.00 | 95 | 1014.9 |
| 20260508095503 | 1 | 167 | 0.0 | 1.6 | 0.00 | 0.00 | 0.00 | 95 | 1015.0 |
| 20260508095003 | 2 | 167 | 0.0 | 1.6 | 0.00 | 0.00 | 0.00 | 95 | 1014.9 |
| 20260508094503 | 2 | 0 | 0.0 | 0.0 | 0.00 | 0.00 | 0.00 | 95 | 1014.9 |
| 20260508094003 | 2 | 0 | 0.0 | 0.0 | 0.00 | 0.00 | 0.00 | 95 | 1014.9 |
| 20260508093524 | 2 | 0 | 0.0 | 0.0 | 0.00 | 0.00 | 0.00 | 95 | 1015.0 |
| 20260508093003 | 2 | 0 | 0.0 | 0.0 | 0.00 | 0.00 | 0.00 | 95 | 1014.9 |
| 20260508092503 | 2 | 0 | 0.0 | 0.0 | 0.00 | 0.00 | 0.00 | 95 | 1015.0 |
| 20260508092024 | 2 | 0 | 0.0 | 0.0 | 0.00 | 0.00 | 0.00 | 95 | 1014.9 |
| 20260508091503 | 2 | 0 | 0.0 | 0.0 | 0.00 | 0.00 | 0.00 | 94 | 1014.9 |
| 20260508091003 | 2 | 162 | 0.0 | 1.6 | 0.00 | 0.00 | 0.00 | 95 | 1014.9 |
| 20260508090503 | 2 | 159 | 0.0 | 1.6 | 0.00 | 0.00 | 0.00 | 95 | 1014.8 |
| 20260508090003 | 2 | 155 | 0.0 | 1.6 | 0.00 | 0.00 | 0.00 | 95 | 1014.7 |
| 20260508085524 | 2 | 155 | 0.0 | 1.6 | 0.00 | 0.00 | 0.00 | 94 | 1014.8 |
| 20260508085003 | 2 | 155 | 0.0 | 1.6 | 0.00 | 0.00 | 0.00 | 94 | 1014.8 |
| 20260508084524 | 2 | 155 | 0.0 | 1.6 | 0.00 | 0.00 | 0.00 | 94 | 1014.8 |
| 20260508084003 | 2 | 155 | 0.0 | 1.6 | 0.00 | 0.00 | 0.00 | 95 | 1014.9 |
| 20260508083503 | 2 | 155 | 0.0 | 1.6 | 0.00 | 0.00 | 0.00 | 94 | 1014.9 |
| 20260508083003 | 2 | 0 | 0.0 | 0.0 | 0.00 | 0.00 | 0.00 | 94 | 1014.7 |
| 20260508082503 | 2 | 155 | 0.0 | 1.6 | 0.00 | 0.00 | 0.00 | 95 | 1014.8 |
| 20260508082003 | 2 | 157 | 0.0 | 3.2 | 0.00 | 0.00 | 0.00 | 95 | 1014.8 |
| 20260508081503 | 2 | 174 | 1.6 | 3.2 | 0.00 | 0.00 | 0.00 | 95 | 1014.8 |
| 20260508081003 | 2 | 199 | 0.0 | 3.2 | 0.00 | 0.00 | 0.00 | 95 | 1014.8 |
| 20260508080503 | 2 | 0 | 0.0 | 0.0 | 0.00 | 0.00 | 0.00 | 94 | 1014.8 |
| 20260508080003 | 2 | 0 | 0.0 | 0.0 | 0.00 | 0.00 | 0.00 | 94 | 1014.9 |
| 20260508075524 | 2 | 0 | 0.0 | 0.0 | 0.00 | 0.00 | 0.00 | 94 | 1014.9 |
| 20260508075003 | 2 | 0 | 0.0 | 0.0 | 0.00 | 0.00 | 0.00 | 94 | 1014.8 |
| 20260508074524 | 2 | 0 | 0.0 | 0.0 | 0.00 | 0.00 | 0.00 | 94 | 1014.8 |
| 20260508074003 | 2 | 284 | 0.0 | 1.6 | 0.00 | 0.00 | 0.00 | 94 | 1014.8 |
| 20260508073503 | 2 | 283 | 0.0 | 1.6 | 0.00 | 0.00 | 0.00 | 94 | 1014.8 |
| 20260508073003 | 2 | 283 | 0.0 | 1.6 | 0.00 | 0.00 | 0.00 | 94 | 1014.8 |
| 20260508072503 | 2 | 0 | 0.0 | 0.0 | 0.00 | 0.00 | 0.00 | 94 | 1014.8 |
| 20260508072024 | 2 | 282 | 0.0 | 1.6 | 0.00 | 0.00 | 0.00 | 94 | 1014.8 |
| 20260508071503 | 2 | 284 | 0.0 | 1.6 | 0.00 | 0.00 | 0.00 | 94 | 1014.8 |
| 20260508071003 | 2 | 285 | 0.0 | 1.6 | 0.00 | 0.00 | 0.00 | 94 | 1014.9 |
| 20260508070503 | 2 | 0 | 0.0 | 0.0 | 0.00 | 0.00 | 0.00 | 94 | 1014.8 |
| 20260508070003 | 2 | 0 | 0.0 | 0.0 | 0.00 | 0.00 | 0.00 | 94 | 1014.8 |
| 20260508065524 | 2 | 0 | 0.0 | 0.0 | 0.00 | 0.00 | 0.00 | 94 | 1014.8 |
| 20260508065024 | 3 | 289 | 0.0 | 1.6 | 0.00 | 0.00 | 0.00 | 94 | 1014.8 |
| 20260508064524 | 3 | 284 | 0.0 | 1.6 | 0.00 | 0.00 | 0.00 | 94 | 1014.9 |
| 20260508064003 | 2 | 283 | 0.0 | 1.6 | 0.00 | 0.00 | 0.00 | 94 | 1014.9 |
| 20260508063524 | 2 | 0 | 0.0 | 0.0 | 0.00 | 0.00 | 0.00 | 94 | 1014.9 |
| 20260508063003 | 3 | 0 | 0.0 | 0.0 | 0.00 | 0.00 | 0.00 | 93 | 1014.9 |
| 20260508062503 | 3 | 0 | 0.0 | 0.0 | 0.00 | 0.00 | 0.00 | 94 | 1014.9 |
| 20260508062003 | 3 | 0 | 0.0 | 0.0 | 0.00 | 0.00 | 0.00 | 94 | 1014.9 |
| 20260508061503 | 3 | 0 | 0.0 | 0.0 | 0.00 | 0.00 | 0.00 | 94 | 1014.9 |
| 20260508061003 | 3 | 0 | 0.0 | 0.0 | 0.00 | 0.00 | 0.00 | 93 | 1015.0 |
| 20260508060524 | 3 | 0 | 0.0 | 0.0 | 0.00 | 0.00 | 0.00 | 93 | 1015.1 |
| 20260508060003 | 3 | 0 | 0.0 | 0.0 | 0.00 | 0.00 | 0.00 | 93 | 1015.2 |
| 20260508055503 | 3 | 0 | 0.0 | 0.0 | 0.00 | 0.00 | 0.00 | 93 | 1015.1 |
| 20260508055003 | 3 | 0 | 0.0 | 0.0 | 0.00 | 0.00 | 0.00 | 93 | 1015.2 |
| 20260508054503 | 3 | 0 | 0.0 | 0.0 | 0.00 | 0.00 | 0.00 | 93 | 1015.2 |
| 20260508054003 | 3 | 283 | 0.0 | 1.6 | 0.00 | 0.00 | 0.00 | 93 | 1015.2 |
| 20260508053503 | 3 | 283 | 0.0 | 1.6 | 0.00 | 0.00 | 0.00 | 92 | 1015.3 |
| 20260508053024 | 3 | 283 | 0.0 | 1.6 | 0.00 | 0.00 | 0.00 | 93 | 1015.2 |
| 20260508052503 | 3 | 283 | 0.0 | 1.6 | 0.00 | 0.00 | 0.00 | 93 | 1015.2 |
| 20260508052003 | 3 | 284 | 0.0 | 1.6 | 0.00 | 0.00 | 0.00 | 93 | 1015.2 |
| 20260508051503 | 3 | 0 | 0.0 | 0.0 | 0.00 | 0.00 | 0.00 | 93 | 1015.3 |
| 20260508051003 | 3 | 0 | 0.0 | 0.0 | 0.00 | 0.00 | 0.00 | 92 | 1015.2 |
| 20260508050503 | 3 | 283 | 0.0 | 1.6 | 0.00 | 0.00 | 0.00 | 93 | 1015.1 |
| 20260508050003 | 4 | 283 | 0.0 | 1.6 | 0.00 | 0.00 | 0.00 | 93 | 1015.1 |
| 20260508045503 | 4 | 283 | 0.0 | 1.6 | 0.00 | 0.00 | 0.00 | 93 | 1015.1 |
| 20260508045024 | 4 | 0 | 0.0 | 0.0 | 0.00 | 0.00 | 0.00 | 92 | 1015.1 |
| 20260508044503 | 4 | 0 | 0.0 | 0.0 | 0.00 | 0.00 | 0.00 | 92 | 1015.0 |
| 20260508044003 | 4 | 0 | 0.0 | 0.0 | 0.00 | 0.00 | 0.00 | 92 | 1015.0 |
| 20260508043503 | 4 | 0 | 0.0 | 0.0 | 0.00 | 0.00 | 0.00 | 92 | 1015.0 |
| 20260508043003 | 4 | 0 | 0.0 | 0.0 | 0.00 | 0.00 | 0.00 | 92 | 1014.9 |
| 20260508042524 | 4 | 0 | 0.0 | 0.0 | 0.00 | 0.00 | 0.00 | 92 | 1015.0 |
| 20260508042003 | 4 | 0 | 0.0 | 0.0 | 0.00 | 0.00 | 0.00 | 91 | 1015.1 |
| 20260508041503 | 4 | 0 | 0.0 | 0.0 | 0.00 | 0.00 | 0.00 | 91 | 1015.0 |
| 20260508041003 | 4 | 0 | 0.0 | 0.0 | 0.00 | 0.00 | 0.00 | 91 | 1015.1 |
| 20260508040503 | 4 | 0 | 0.0 | 0.0 | 0.00 | 0.00 | 0.00 | 90 | 1015.0 |
| 20260508040003 | 5 | 283 | 0.0 | 1.6 | 0.00 | 0.00 | 0.00 | 91 | 1015.1 |
| 20260508035503 | 5 | 283 | 0.0 | 1.6 | 0.00 | 0.00 | 0.00 | 90 | 1015.0 |
| 20260508035003 | 5 | 0 | 0.0 | 0.0 | 0.00 | 0.00 | 0.00 | 90 | 1015.0 |
| 20260508034503 | 5 | 0 | 0.0 | 0.0 | 0.00 | 0.00 | 0.00 | 90 | 1015.0 |
| 20260508034003 | 5 | 0 | 0.0 | 0.0 | 0.00 | 0.00 | 0.00 | 91 | 1015.1 |
| 20260508033503 | 5 | 0 | 0.0 | 0.0 | 0.00 | 0.00 | 0.00 | 91 | 1015.1 |
| 20260508033003 | 5 | 0 | 0.0 | 0.0 | 0.00 | 0.00 | 0.00 | 90 | 1015.1 |
| 20260508032503 | 5 | 0 | 0.0 | 0.0 | 0.00 | 0.00 | 0.00 | 90 | 1015.2 |
| 20260508032003 | 5 | 0 | 0.0 | 0.0 | 0.00 | 0.00 | 0.00 | 89 | 1015.2 |
| 20260508031503 | 5 | 0 | 0.0 | 0.0 | 0.00 | 0.00 | 0.00 | 88 | 1015.2 |
| 20260508031003 | 5 | 0 | 0.0 | 0.0 | 0.00 | 0.00 | 0.00 | 88 | 1015.2 |
| 20260508030503 | 5 | 0 | 0.0 | 0.0 | 0.00 | 0.00 | 0.00 | 88 | 1015.2 |
| 20260508030003 | 6 | 0 | 0.0 | 0.0 | 0.00 | 0.00 | 0.00 | 87 | 1015.2 |
| 20260508025503 | 6 | 0 | 0.0 | 0.0 | 0.00 | 0.00 | 0.00 | 86 | 1015.2 |
| 20260508025003 | 6 | 0 | 0.0 | 0.0 | 0.00 | 0.00 | 0.00 | 87 | 1015.2 |
| 20260508024503 | 6 | 0 | 0.0 | 0.0 | 0.00 | 0.00 | 0.00 | 86 | 1015.2 |
| 20260508024003 | 6 | 0 | 0.0 | 0.0 | 0.00 | 0.00 | 0.00 | 86 | 1015.1 |
| 20260508023503 | 6 | 283 | 0.0 | 1.6 | 0.00 | 0.00 | 0.00 | 85 | 1015.1 |
| 20260508023003 | 6 | 283 | 0.0 | 1.6 | 0.00 | 0.00 | 0.00 | 85 | 1015.1 |
| 20260508022524 | 6 | 0 | 0.0 | 0.0 | 0.00 | 0.00 | 0.00 | 84 | 1015.0 |
| 20260508022003 | 7 | 0 | 0.0 | 0.0 | 0.00 | 0.00 | 0.00 | 83 | 1015.0 |
| 20260508021524 | 7 | 0 | 0.0 | 0.0 | 0.00 | 0.00 | 0.00 | 82 | 1014.9 |
| 20260508021024 | 7 | 282 | 0.0 | 3.2 | 0.00 | 0.00 | 0.00 | 80 | 1014.9 |
| 20260508020524 | 7 | 286 | 0.0 | 3.2 | 0.00 | 0.00 | 0.00 | 79 | 1014.9 |
| 20260508020003 | 7 | 291 | 1.6 | 3.2 | 0.00 | 0.00 | 0.00 | 80 | 1014.8 |
| 20260508015503 | 8 | 297 | 0.0 | 1.6 | 0.00 | 0.00 | 0.00 | 77 | 1014.7 |
| 20260508015003 | 8 | 0 | 0.0 | 0.0 | 0.00 | 0.00 | 0.00 | 77 | 1014.6 |
| 20260508014503 | 8 | 0 | 0.0 | 0.0 | 0.00 | 0.00 | 0.00 | 76 | 1014.5 |
| 20260508014003 | 8 | 0 | 0.0 | 0.0 | 0.00 | 0.00 | 0.00 | 75 | 1014.5 |
| 20260508013503 | 8 | 297 | 0.0 | 1.6 | 0.00 | 0.00 | 0.00 | 72 | 1014.3 |
| 20260508013003 | 9 | 297 | 0.0 | 1.6 | 0.00 | 0.00 | 0.00 | 72 | 1014.3 |
| 20260508012524 | 9 | 305 | 0.0 | 1.6 | 0.00 | 0.00 | 0.00 | 71 | 1014.3 |
| 20260508012003 | 9 | 305 | 0.0 | 1.6 | 0.00 | 0.00 | 0.00 | 69 | 1014.3 |
| 20260508011503 | 10 | 0 | 0.0 | 0.0 | 0.00 | 0.00 | 0.00 | 68 | 1014.2 |
| 20260508011003 | 10 | 0 | 0.0 | 0.0 | 0.00 | 0.00 | 0.00 | 67 | 1014.2 |
| 20260508010503 | 10 | 0 | 0.0 | 0.0 | 0.00 | 0.00 | 0.00 | 65 | 1014.1 |
| 20260508010024 | 11 | 0 | 0.0 | 0.0 | 0.00 | 0.00 | 0.00 | 69 | 1014.0 |
| 20260508005524 | 11 | 0 | 0.0 | 0.0 | 0.00 | 0.00 | 0.00 | 67 | 1013.9 |
| 20260508005003 | 11 | 296 | 0.0 | 1.6 | 0.00 | 0.00 | 0.00 | 66 | 1013.9 |
| 20260508004503 | 11 | 296 | 0.0 | 1.6 | 0.00 | 0.00 | 0.00 | 65 | 1013.9 |
| 20260508004003 | 12 | 299 | 0.0 | 3.2 | 0.00 | 0.00 | 0.00 | 61 | 1013.9 |
| 20260508003503 | 12 | 298 | 1.6 | 3.2 | 0.00 | 0.00 | 0.00 | 60 | 1013.8 |
| 20260508003003 | 12 | 300 | 3.2 | 3.2 | 0.00 | 0.00 | 0.00 | 59 | 1013.7 |
| 20260508002503 | 13 | 302 | 3.2 | 3.2 | 0.00 | 0.00 | 0.00 | 56 | 1013.6 |
| 20260508002003 | 13 | 303 | 3.2 | 3.2 | 0.00 | 0.00 | 0.00 | 53 | 1013.6 |
| 20260508001503 | 13 | 304 | 1.6 | 3.2 | 0.00 | 0.00 | 0.00 | 50 | 1013.5 |
| 20260508001003 | 13 | 307 | 3.2 | 4.8 | 0.00 | 0.00 | 0.00 | 50 | 1013.5 |
| 20260508000503 | 13 | 306 | 3.2 | 4.8 | 0.00 | 0.00 | 0.00 | 49 | 1013.5 |
| 20260508000003 | 13 | 301 | 3.2 | 6.4 | 0.00 | 0.00 | 0.00 | 49 | 1013.5 |
| 20260507235503 | 13 | 299 | 3.2 | 6.4 | 0.00 | 0.00 | 0.00 | 48 | 1013.5 |
| 20260507235003 | 13 | 297 | 3.2 | 8.0 | 0.00 | 0.00 | 0.00 | 48 | 1013.4 |
| 20260507234503 | 14 | 295 | 4.8 | 8.0 | 0.00 | 0.00 | 0.00 | 48 | 1013.5 |
| 20260507234003 | 14 | 295 | 4.8 | 8.0 | 0.00 | 0.00 | 0.00 | 47 | 1013.4 |
| 20260507233503 | 15 | 299 | 4.8 | 8.0 | 0.00 | 0.00 | 0.00 | 47 | 1013.3 |
| 20260507233003 | 15 | 301 | 3.2 | 6.4 | 0.00 | 0.00 | 0.00 | 45 | 1013.3 |
| 20260507232503 | 15 | 292 | 3.2 | 6.4 | 0.00 | 0.00 | 0.00 | 46 | 1013.3 |
| 20260507232024 | 15 | 283 | 4.8 | 8.0 | 0.00 | 0.00 | 0.00 | 43 | 1013.3 |
| 20260507231503 | 15 | 283 | 6.4 | 11.3 | 0.00 | 0.00 | 0.00 | 42 | 1013.4 |
| 20260507231024 | 15 | 287 | 6.4 | 11.3 | 0.00 | 0.00 | 0.00 | 44 | 1013.4 |
| 20260507230503 | 16 | 295 | 6.4 | 9.7 | 0.00 | 0.00 | 0.00 | 44 | 1013.4 |
| 20260507230003 | 16 | 296 | 6.4 | 11.3 | 0.00 | 0.00 | 0.00 | 43 | 1013.4 |
| 20260507225503 | 16 | 296 | 4.8 | 11.3 | 0.00 | 0.00 | 0.00 | 44 | 1013.4 |
| 20260507225003 | 16 | 301 | 4.8 | 9.7 | 0.00 | 0.00 | 0.00 | 42 | 1013.3 |
| 20260507224524 | 17 | 308 | 4.8 | 9.7 | 0.00 | 0.00 | 0.00 | 42 | 1013.3 |
| 20260507224003 | 16 | 331 | 3.2 | 9.7 | 0.00 | 0.00 | 0.00 | 42 | 1013.2 |
| 20260507223503 | 16 | 315 | 4.8 | 9.7 | 0.00 | 0.00 | 0.00 | 43 | 1013.2 |
| 20260507223003 | 16 | 296 | 4.8 | 9.7 | 0.00 | 0.00 | 0.00 | 44 | 1013.2 |
| 20260507222503 | 17 | 292 | 4.8 | 11.3 | 0.00 | 0.00 | 0.00 | 43 | 1013.3 |
| 20260507222024 | 17 | 288 | 4.8 | 11.3 | 0.00 | 0.00 | 0.00 | 42 | 1013.3 |
| 20260507221503 | 17 | 285 | 6.4 | 12.9 | 0.00 | 0.00 | 0.00 | 44 | 1013.3 |
| 20260507221003 | 17 | 294 | 6.4 | 12.9 | 0.00 | 0.00 | 0.00 | 42 | 1013.5 |
| 20260507220524 | 17 | 295 | 4.8 | 11.3 | 0.00 | 0.00 | 0.00 | 39 | 1013.4 |
| 20260507220003 | 17 | 288 | 6.4 | 16.1 | 0.00 | 0.00 | 0.00 | 43 | 1013.4 |
| 20260507215503 | 17 | 286 | 6.4 | 16.1 | 0.00 | 0.00 | 0.00 | 41 | 1013.4 |
| 20260507215003 | 17 | 278 | 8.0 | 12.9 | 0.00 | 0.00 | 0.00 | 44 | 1013.4 |
| 20260507214503 | 17 | 292 | 6.4 | 12.9 | 0.00 | 0.00 | 0.00 | 40 | 1013.4 |
| 20260507214003 | 17 | 303 | 6.4 | 12.9 | 0.00 | 0.00 | 0.00 | 44 | 1013.2 |
| 20260507213503 | 17 | 291 | 6.4 | 12.9 | 0.00 | 0.00 | 0.00 | 45 | 1013.2 |
| 20260507213003 | 17 | 302 | 4.8 | 9.7 | 0.00 | 0.00 | 0.00 | 36 | 1013.2 |
| 20260507212524 | 17 | 312 | 4.8 | 11.3 | 0.00 | 0.00 | 0.00 | 44 | 1013.1 |
| 20260507212003 | 17 | 314 | 6.4 | 14.5 | 0.00 | 0.00 | 0.00 | 44 | 1013.0 |